Location: Hawks Ness
(60.2333°N, 1.1667°W)
Time: 03:52:01
(UTC+00:00)

Cosmos 1954 Rocket - Pass Details

Date: 22 October 2019
Orbit: 753 x 781 km, 74.1° (Epoch: 20 November)

Event Time Altitude Azimuth Distance (km) Brightness Sun altitude
Rises 05:39:24 0° 219° (SW) 3,225 6.9 -10.7°
Reaches altitude 10° 05:41:47 10° 222° (SW) 2,298 6.1 -10.4°
Maximum altitude 05:46:59 71° 306° (NW) 810 4.0 -9.8°
Drops below altitude 10° 05:52:12 10° 31° (NNE) 2,297 6.8 -9.1°
Sets 05:54:35 0° 34° (NE) 3,223 7.6 -8.8°
